Hourly Data Report for October 18, 2017

VICTORIA UNIVERSITY CS
BRITISH COLUMBIA

48°27'25.200" N
123°18'16.600" W
60.10 m
1018598
71783
WYJ

Download Data

Hourly Data (October 2017)
Hourly Data Report for October 18, 2017
TIME
LST
Temp Definition
°C
Dew Point Definition
°C
Rel Hum Definition
%
Precip. Amount Definition
mm

Wind Dir Definition
10's deg

Wind Spd Definition
km/h
Visibility Definition
km
Stn Press Definition
kPa
Hmdx Definition


Wind Chill Definition


Weather Definition


00:00 8.3 5.9 85 0.0 19 5   101.02     LegendNANA
01:00 6.7 5.2 90 0.0 19 2   100.91     LegendNANA
02:00 6.6 5.4 92 0.0   0   100.82     LegendNANA
03:00 8.4 5.9 84 0.0 9 2   100.70     LegendNANA
04:00 8.7 6.7 87 0.0 8 4   100.52     LegendNANA
05:00 9.2 7.1 87 0.0 10 6   100.38     LegendNANA
06:00 8.8 6.7 87 0.0 14 2   100.27     LegendNANA
07:00 8.9 7.4 90 0.6 6 2   100.10     LegendNANA
08:00 9.2 7.9 92 1.4 15 2   99.89     LegendNANA
09:00 9.3 8.1 92 1.1 15 6   99.70     LegendNANA
10:00 10.2 9.0 92 0.9 14 7   99.58     LegendNANA
11:00 10.2 9.2 94 1.8 15 9   99.45     LegendNANA
12:00 10.3 9.6 95 4.1 16 9   99.34     LegendNANA
13:00 10.9 10.1 95 2.8 16 10   99.20     LegendNANA
14:00 11.4 10.6 95 4.8 16 9   99.09     LegendNANA
15:00 11.6 11.1 97 6.1 23 3   99.19     LegendNANA
16:00 12.1 11.7 98 7.1 22 5   99.19     LegendNANA
17:00 12.1 11.3 95 4.4 28 10   99.25     LegendNANA
18:00 11.7 10.5 93 3.1 25 13   99.25     LegendNANA
19:00 11.2 10.0 92 2.8 24 7   99.33     LegendNANA
20:00 10.9 10.2 95 0.9 21 7   99.19     LegendNANA
21:00 10.9 9.3 90 0.0 22 7   99.24     LegendNANA
22:00 11.0 10.2 95 0.0 16 2   99.29     LegendNANA
23:00 10.2 9.7 96 0.0 17 2   99.28     LegendNANA

Notes on Data Quality.

Legend

  • E = Estimated
  • M = Missing
  • NA = Not Available*
  • [empty] = Indicates an unobserved value
Date modified: